Regional Weather Roundup
Issued by NWS

Home | Current Version | Previous Version | Text Only | Print | Product List | Glossary Off
Versions: 1 2 3 4 5 6 7 8 9 10 11 12 13 14 15 16 17 18 19 20 21 22 23 24 25 26 27 28 29 30 31 32 33 34 35 36 37 38 39 40 41 42 43 44 45 46 47 48 49 50

000
ASUS43 KMPX 260201
RWRMN
WEATHER ROUNDUP FOR MINNESOTA
NATIONAL WEATHER SERVICE TWIN CITIES/CHANHASSEN MN
900 PM CDT THU AUG 25 2016


NOTE: "FAIR" INDICATES FEW OR NO CLOUDS BELOW 12,000 FEET WITH NO
SIGNIFICANT WEATHER AND/OR OBSTRUCTIONS TO VISIBILITY. N/A MEANS
CURRENT SKY AND/OR WEATHER CONDITIONS ARE NOT AVAILABLE.

MNZ060>063-068>070-260300-
   Twin Cities Metro

CITY           SKY/WX    TMP DP  RH WIND       PRES   REMARKS
TWIN CITIES    PTCLDY    66  52  60 W7        30.09R
ST PAUL        CLEAR     65  53  65 W6        30.09R
CRYSTAL        CLEAR     64  52  64 W6        30.07S
LAKEVILLE      PTCLDY    61  55  82 W3        30.10R
EDEN PRAIRIE   CLEAR     64  53  67 W5        30.09R
LAKEVILLE      PTCLDY    61  55  82 W3        30.10R
SOUTH ST PAUL  CLEAR     65  52  61 W3        30.09R
LAKE ELMO      FAIR      61  54  77 CALM      30.09S
$$
MNZ001>005-007-008-013>017-022>024-027-028-260300-
   Northwest Minnesota

CITY           SKY/WX    TMP DP  RH WIND       PRES   REMARKS
BEMIDJI        CLOUDY    58  51  77 NW5       30.06S
HALLOCK        CLEAR     61  52  72 CALM      30.03R
ROSEAU         PTCLDY    57  52  82 CALM      30.03R
WARROAD        CLEAR     54  50  87 CALM      30.03S
THIEF RVR FALL CLEAR     57  50  77 CALM      30.06
CROOKSTON      CLEAR     61  50  67 CALM      30.06S
FOSSTON        PTCLDY    54  45  71 SW3       30.08R
DETROIT LAKES  CLOUDY    61  52  72 W5        30.10R
MOORHEAD       CLOUDY    63  50  63 SW3       30.09R
PARK RAPIDS    PTCLDY    54  50  86 W5        30.08R
MAHNOMEN       CLOUDY    61  50  67 W6        30.07S
$$
MNZ006-009>011-018-025>026-260300-
   North Central Minnesota

CITY           SKY/WX    TMP DP  RH WIND       PRES   REMARKS
BAUDETTE       CLOUDY    57  52  83 CALM      30.02R
FLAG ISLAND    CLEAR     63  52  67 CALM      30.01R
INTL FALLS     CLEAR     52  51  97 CALM      30.01R
WASKISH        MOCLDY    63  52  67 NW7       30.04R
BIG FORK       CLOUDY    57  54  88 SW3       30.05R
LONGVILLE      MOCLDY    59  54  82 W3        30.06R
GRAND RAPIDS   CLOUDY    61  54  77 NW9       30.07R
CRANE LAKE     CLOUDY    57  55  94 W3        30.01R
ORR            CLOUDY    57  54  88 NW7       30.00R
COOK           CLOUDY    57  55  94 W6        30.02R
WALKER         FAIR      56  54  93 CALM      30.07R
$$
MNZ012-019>021-037-260300-
   Northeast Minnesota

CITY           SKY/WX    TMP DP  RH WIND       PRES   REMARKS
DULUTH         PTCLDY    61  54  77 W9        30.03R
ELY            CLOUDY    57  55  94 W5        30.00R
HIBBING        CLOUDY    56  53  90 W5        30.04R
EVELETH        MOCLDY    60  55  83 W12       30.04R
DULUTH HARBOR  PTCLDY    66  57  72 W12       30.03R
TWO HARBORS    CLEAR     64  55  72 W6        29.99R
SILVER BAY     LGT RAIN  63  57  82 NW3       29.99R
G MARAIS ARPRT MOCLDY    57  52  82 W6        29.98R
$$
MNZ029>031-032-039>041-046>048-054>057-064-260300-
   West Central Minnesota

CITY           SKY/WX    TMP DP  RH WIND       PRES   REMARKS
FERGUS FALLS   CLOUDY    61  55  82 W3        30.11R
WHEATON        PTCLDY    61  57  88 SW3       30.13R
MORRIS         CLOUDY    61  55  82 W3        30.11R
ALEXANDRIA     CLOUDY    61  54  77 W8        30.11S
ELBOW LAKE     CLOUDY    60  56  87 SW5       30.11S
WADENA         PTCLDY    55  52  88 W5        30.09R
GLENWOOD       CLOUDY    59  55  88 W7        30.11S
APPLETON       MOCLDY    59  54  82 W3        30.11S
BENSON         CLOUDY    57  54  88 W3        30.11S
ORTONVILLE     CLOUDY    63  54  72 NW6       30.11S
MADISON        CLEAR     59  52  77 NW5         N/A
WILLMAR        FAIR      61  55  82 W6        30.13R
$$
MNZ033>034-036-042>043-049>051-058-059-260300-
   Central Minnesota

CITY           SKY/WX    TMP DP  RH WIND       PRES   REMARKS
ST CLOUD       CLOUDY    62  56  80 NW6       30.09R
SAUK CENTRE    CLOUDY    59  56  88 W6        30.10S
PAYNESVILLE    MOCLDY    58  55  87 W6        30.11S
AITKIN         CLOUDY    63  52  67 CALM      30.06R
PINE RIVER     CLOUDY    57  54  88 CALM      30.10R
BRAINERD       PTCLDY    61  53  75 W7        30.08R
STAPLES        CLEAR     55  52  88 W5        30.09R
LONG PRAIRIE   CLOUDY    61  54  77 SW5       30.10S
LITTLE FALLS   CLOUDY    61  54  77 CALM      30.09R
LITCHFIELD     CLEAR     63  55  77 W5        30.11S
BUFFALO        CLEAR     63  54  73 W6        30.11R
MAPLE LAKE     PTCLDY    62  56  82 CALM      30.10S
HUTCHINSON     CLEAR     59  55  89 W3        30.12R
$$
MNZ037-044-045-052-053-260300-
   East Central Minnesota

CITY           SKY/WX    TMP DP  RH WIND       PRES   REMARKS
PRINCETON        N/A     63  55  77 W5        30.09R
MORA           CLOUDY    61  54  77 W6        30.09R
CAMBRIDGE      PTCLDY    64  52  63 CALM      30.07R
RUSH CITY      CLOUDY    62  55  76 W6        30.07S
MOOSE LAKE     PTCLDY    59  54  82 W5        30.04R
HINCKLEY       CLOUDY    61  57  88 SW3       30.07S
CLOQUET        CLOUDY    61  52  72 W6        30.04R
MCGREGOR       CLOUDY    61  54  77 W5        30.06R
$$
MNZ071>073-080-081-089-090-097-098-260300-
   Southwest Minnesota

CITY           SKY/WX    TMP DP  RH WIND       PRES   REMARKS
MONTEVIDEO     CLEAR     59  52  77 N5        30.14R
GRANITE FALLS  CLEAR     60  55  83 W6        30.14R
CANBY          CLEAR     61  54  77 CALM      30.14R
MARSHALL       CLEAR     62  55  77 N3        30.13R
REDWOOD FALLS  CLEAR     62  53  72 NW5       30.12R
OLIVIA         CLEAR     59  54  82 NW5       30.11S
PIPESTONE      CLEAR     63  54  72 NW2       30.14R
WINDOM         CLEAR     63  57  82 CALM      30.14R
WORTHINGTON    CLEAR     61  57  87 CALM      30.15R
JACKSON        CLEAR     63  54  72 NW3       30.14R
TRACY          PTCLDY    61  57  88 CALM      30.14R
$$
MNZ065>067-074>077-082>085-091>093-260300-
   South Central Minnesota

CITY           SKY/WX    TMP DP  RH WIND       PRES   REMARKS
MANKATO        PTCLDY    64  55  72 N5        30.12R
NEW ULM          N/A     61  55  82 NW3       30.12R
ST JAMES       CLEAR     57  54  88 W3        30.13R
FAIRMONT       CLEAR     64  59  83 NW5       30.13R
GLENCOE        CLEAR     62  56  79 W3        30.10R
FARIBAULT      CLEAR     61  57  88 CALM      30.12R
OWATONNA       MOCLDY    63  57  82 CALM      30.12R
WASECA         MOCLDY    59  55  88 N5        30.12R
ALBERT LEA     CLEAR     63  61  94 CALM      30.12R
$$
MNZ078>079-086>088-094>096-260300-
   Southeast Minnesota

CITY           SKY/WX    TMP DP  RH WIND       PRES   REMARKS
ROCHESTER      CLEAR     62  58  86 W6        30.12R
RED WING       PTCLDY    64  55  72 CALM      30.08R
STANTON        CLOUDY    64  57  77 CALM      30.10R
DODGE CENTER   PTCLDY    63  57  82 NW3       30.12R
WINONA         CLEAR     70  57  64 W3        30.09R
AUSTIN         CLEAR     64  57  77 CALM      30.11R
PRESTON        CLEAR     61  56  84 NW5       30.12R
$$
ABBREVIATIONS USED IN REMARKS
   TC - TEMPERATURES IN CELSIUS
  WCI - WIND CHILL INDEX
   HX - HEAT INDEX
  VSB - VISIBILITY
$$



USA.gov is the U.S. government's official web portal to all federal, state and local government web resources and services.